sat.trackr.live / text

‹ back to catalog

STARLINK-5051

NORAD 53916 · 2022-119AG

PAYLOAD ACTIVE UNKNOWN

§ Identity

Operator
Country
US
Launch date
2022-09-24
Launch site
AFETR
Launch vehicle
Mass (kg)
RCS (m²)

Purposes: comms

External: N2YO · Heavens-Above · Gunter

§ Orbital elements

Epoch: 2026-09-20T06:12:04.236768Z

Period
94.01 min
Inclination
53.1594°
Eccentricity
0.0001075
Mean motion
15.31697447 rev/d
Perigee alt
470.0 km
Apogee alt
471.5 km
Semi-major
6,848.9 km
B*
4.3201e-5
RAAN
124.9865°
Arg perigee
82.1198°
Mean anomaly
277.9926°
Rev number
22,170

§ Raw data

STARLINK-50511 53916U 22119AG  26263.25838237  .00000976  00000+0  43201-4 0  99912 53916  53.1594 124.9865 0001075  82.1198 277.9926 15.31697447221701

JSON: /api/v1/satellites/53916 · /tle

For live sub-satellite position, see the globe view (requires WebGL).

§ Visibility from observer

Set your observer location to see the next 7 days of passes ≥ 10°. The values pass through the URL so the page stays shareable.

No JS? Fill the form by hand. The geolocation button needs JavaScript.